This is the latest recevied weather packets stored in our database for station/object N5RPG. If no packets are shown the sender has not sent any weather packets the latest 10 day(s).
| Time | Temp. | Humidity | Pressure | Rain* | Wind** | Luminosity | Snow |
|---|---|---|---|---|---|---|---|
| 1778166954 | 16.67° C | 67% | 1020.2 hPa | 0 mm | - | 258 W/m² | - |
| 1778166651 | 16.67° C | 67% | 1020.4 hPa | 0 mm | - | 252 W/m² | - |
| 1778166349 | 16.67° C | 67% | 1020 hPa | 0 mm | - | 290 W/m² | - |
| 1778166045 | 16.67° C | 65% | 1020.3 hPa | 0 mm | - | 304 W/m² | - |
| 1778165740 | 16.67° C | 68% | 1020.1 hPa | 0 mm | - | 354 W/m² | - |
| 1778165438 | 16.67° C | 68% | 1020.2 hPa | 0 mm | - | 305 W/m² | - |
| 1778165134 | 16.67° C | 67% | 1020.3 hPa | 0 mm | - | 226 W/m² | - |
| 1778164832 | 16.67° C | 69% | 1020.3 hPa | 0 mm | - | 324 W/m² | - |
| 1778164529 | 16.67° C | 69% | 1020.3 hPa | 0 mm | - | 308 W/m² | - |
| 1778164227 | 16.11° C | 70% | 1020.2 hPa | 0 mm | - | 371 W/m² | - |
| 1778163921 | 15.56° C | 73% | 1020 hPa | 0 mm | - | 324 W/m² | - |
| 1778163619 | 15.56° C | 72% | 1020.2 hPa | 0 mm | - | 331 W/m² | - |
| 1778163315 | 15.56° C | 76% | 1020.1 hPa | 0 mm | - | 431 W/m² | - |
| 1778163011 | 15° C | 77% | 1020 hPa | 0 mm | - | 398 W/m² | - |
| 1778162709 | 14.44° C | 79% | 1020.2 hPa | 0 mm | - | 316 W/m² | - |
| 1778162406 | 13.89° C | 81% | 1020 hPa | 0 mm | - | 165 W/m² | - |
| 1778162102 | 13.33° C | 82% | 1019.9 hPa | 0 mm | - | 186 W/m² | - |
| 1778161800 | 13.33° C | 82% | 1019.9 hPa | 0 mm | - | 161 W/m² | - |
| 1778161496 | 13.33° C | 83% | 1019.9 hPa | 0 mm | - | 201 W/m² | - |
| 1778161192 | 13.33° C | 83% | 1019.8 hPa | 0 mm | - | 175 W/m² | - |
| 1778160888 | 13.33° C | 84% | 1019.9 hPa | 0 mm | - | 144 W/m² | - |
| 1778160587 | 12.78° C | 85% | 1019.9 hPa | 0 mm | - | 146 W/m² | - |
| 1778160282 | 12.78° C | 85% | 1019.9 hPa | 0 mm | - | 108 W/m² | - |
| 1778159979 | 12.78° C | 86% | 1020 hPa | 0 mm | - | 105 W/m² | - |
| 1778159676 | 12.78° C | 86% | 1020 hPa | 0 mm | - | 53 W/m² | - |
* Rain latest hour (hover to see other rain measurements)
** Current wind speed in m/s (hover to see current wind gust speed)